Location: Ellingshausen
(50.5460°N, 10.4723°E)
Time: 01:03:58
(UTC+00:00)

Meteor 1-16 Rocket - Pass Details

Date: 18 January 2026
Orbit: 789 x 905 km, 81.2° (Epoch: 18 February)

Event Time Altitude Azimuth Distance (km) Brightness Sun altitude
Rises 06:12:44 0° 185° (S) 3,359 7.5 -9.0°
Reaches altitude 10° 06:15:09 10° 184° (S) 2,413 6.8 -8.6°
Maximum altitude 06:20:35 76° 100° (E) 835 4.4 -7.9°
Drops below altitude 10° 06:25:55 10° 15° (NNE) 2,376 6.5 -7.1°
Sets 06:28:17 0° 14° (NNE) 3,304 7.2 -6.7°
